Location: Amarillo Post Office Jordan Station
(35.1907°N, 101.9342°W)
Time: 13:42:30
(UTC+00:00)

Cosmos 1634 Rocket - Pass Details

Date: 24 January 2021
Orbit: 961 x 991 km, 82.9° (Epoch: 03 March)

Event Time Altitude Azimuth Distance (km) Brightness Sun altitude
Rises 12:22:31 0° 178° (S) 3,629 7.2 -18.3°
Reaches altitude 10° 12:25:00 10° 176° (S) 2,685 6.5 -17.8°
Maximum altitude 12:31:06 72° 93° (E) 1,008 4.2 -16.6°
Drops below altitude 10° 12:37:15 10° 11° (N) 2,704 6.3 -15.3°
Sets 12:39:46 0° 9° (N) 3,657 7.0 -14.8°
